Location: Charlottesville
(38.0290°N, 78.4770°W)
Time: 20:20:46
(UTC-04:00)

Vanguard 1 - Visible Passes

Search period start: 17 October 2017 00:00
Search period end: 27 October 2017 00:00
Orbit: 650 x 3834 km, 34.3° (Epoch: 17 October)

Date Brightness Start Highest point End Pass type
(mag) Time Alt. Az. Time Alt. Az. Time Alt. Az.
17 Oct 13.9 00:31:04 16° E 00:31:04 16° E 00:34:28 10° E visible
17 Oct 12.6 02:43:46 63° ESE 02:43:46 63° ESE 03:03:38 10° E visible
17 Oct 12.7 04:56:28 41° W 05:07:10 80° S 05:30:32 10° ESE visible
18 Oct 13.7 00:50:49 21° E 00:50:49 21° E 00:56:45 10° E visible
18 Oct 12.5 03:03:31 72° SE 03:03:31 72° SE 03:25:26 10° E visible
18 Oct 12.8 05:16:14 34° W 05:28:55 78° S 05:52:01 10° ESE visible
19 Oct 13.5 01:10:36 27° E 01:10:36 27° E 01:18:50 10° E visible
19 Oct 12.4 03:23:18 78° S 03:23:28 78° S 03:47:14 10° E visible
19 Oct 12.9 05:36:00 28° W 05:50:37 74° SSW 06:13:21 10° ESE visible
20 Oct 13.3 01:30:23 33° E 01:30:23 33° E 01:40:47 10° E visible
20 Oct 12.3 03:43:06 75° SW 03:45:06 80° S 04:09:00 10° E visible
20 Oct 13.0 05:55:48 22° W 06:12:12 69° SSW 06:34:30 10° ESE visible
21 Oct 13.1 01:50:11 40° E 01:50:11 40° E 02:02:42 10° E visible
21 Oct 12.3 04:02:54 67° WSW 04:06:46 79° S 04:30:42 10° ESE visible
21 Oct 13.1 06:15:37 17° W 06:33:40 62° SSW 06:55:25 10° SE visible
22 Oct 12.9 02:10:02 47° E 02:10:02 47° E 02:24:35 10° E visible
22 Oct 12.4 04:22:45 58° WSW 04:28:27 77° S 04:52:17 10° ESE visible
22 Oct 13.2 06:35:28 12° W 06:54:59 55° SSW 07:16:04 10° SE visible
23 Oct 14.0 00:17:12 11° E 00:17:12 11° E 00:17:41 10° E visible
23 Oct 12.7 02:29:55 55° ESE 02:29:55 55° ESE 02:46:28 10° E visible
23 Oct 12.5 04:42:38 50° W 04:50:05 73° SSW 05:13:43 10° ESE visible
23 Oct 13.3 06:56:09 10° W 07:16:09 47° SW 07:36:24 10° SSE visible
24 Oct 13.8 00:37:06 15° E 00:37:06 15° E 00:39:38 10° E visible
24 Oct 12.6 02:49:49 63° ESE 02:49:49 63° ESE 03:08:19 10° E visible
24 Oct 12.6 05:02:33 42° W 05:11:39 68° SSW 05:34:57 10° ESE visible
25 Oct 13.7 00:57:03 19° E 00:57:03 19° E 01:01:32 10° E visible
25 Oct 12.4 03:09:46 70° SE 03:09:46 70° SE 03:30:07 10° ESE visible
25 Oct 12.7 05:22:30 35° W 05:33:07 61° SSW 05:55:56 10° SE visible
26 Oct 13.5 01:17:02 24° E 01:17:02 24° E 01:23:26 10° E visible
26 Oct 12.3 03:29:46 74° SSE 03:29:46 74° SSE 03:51:47 10° ESE visible
26 Oct 12.9 05:42:30 28° W 05:54:29 54° SSW 06:16:37 10° SE visible
